World > North America > United States > Georgia   City of Elberton, Georgia

Hourly Elberton, GA Regional Weather

Feedback E-mail the Weather

Latest News

Elberton, GA Weather Maps

°F °C°F °C
Elberton Weather Map
UTC Time: 5/26/2022, 00:53
Your Time:

Elberton, GA Regional Weather

Expires:202205260100;;582677
ASUS42 KFFC 260010
RWRGA 
WEATHER ROUNDUP FOR GEORGIA
NATIONAL WEATHER SERVICE PEACHTREE CITY GA
800 PM EDT WED MAY 25 2022

NOTE: "FAIR" INDICATES FEW OR NO CLOUDS BELOW 12,000 FEET WITH NO
SIGNIFICANT WEATHER AND/OR OBSTRUCTIONS TO VISIBILITY. 

* = USE WITH CAUTION. THE STATIONS MARKED WITH AN ASTERISK MAY NOT
REPORT WEATHER SUCH AS PRECIPITATION, FOG, OR THUNDER AND ARE NOT 
QUALITY CONTROLLED BY NWS.

THE REMARK "TC" DENOTES TEMPERATURE READING IN DEGREES CELSIUS.


GAZ001>058-260100-
NORTH GEORGIA
  
CITY           SKY/WX    TMP DP  RH WIND       PRES   REMARKS
ATLANTA        MOCLDY    72  66  81 E6        30.09S                  
6HR MIN TEMP:  71; 6HR MAX TEMP:  80; 6HR PCP:  0.20;                

ATHENS         CLOUDY    71  65  81 E13       30.12S                  
6HR MIN TEMP:  71; 6HR MAX TEMP:  75;                                

CHAMBLEE       MOCLDY    70  68  93 MISG      30.10R                  
6HR MIN TEMP:  69; 6HR MAX TEMP:  75; 6HR PCP:  0.07;                

PEACHTREE CITY MOCLDY    71  67  87 E5        30.08R                  
6HR MIN TEMP:  70; 6HR MAX TEMP:  85; 6HR PCP:  0.38;                

ROME           CLOUDY    72  67  84 CALM      30.06S                  
6HR MIN TEMP:  70; 6HR MAX TEMP:  75; 6HR PCP:  0.20;                

WEST ATLANTA   CLOUDY    72  68  87 E6        30.08R                  
6HR MIN TEMP:  72; 6HR MAX TEMP:  78; 6HR PCP:  0.17;                

GAINESVILLE    LGT RAIN  66  62  87 NE12      30.15R                  
6HR MIN TEMP:  65; 6HR MAX TEMP:  69; 6HR PCP: TRACE;                

CARTERSVILLE   CLOUDY    70  68  94 E8        30.09R                  

  
CITY           SKY/WX    TMP DP  RH WIND       PRES   REMARKS
DALTON*        MOCLDY    72  66  83 S7G17     30.09R                  
LAWRENCEVILLE* LGT RAIN  68  66  94 E9        30.13R                  
MARIETTA       CLOUDY    70  67  91 E6        30.08R                  
KENNESAW*      MOCLDY    69  66  90 E7        30.10R                  
CANTON*        CLOUDY    68  66  94 E6        30.13R                  
BLAIRSVILLE*   MOCLDY    66  62  88 SE5G17    30.15R                  
$$


SKY/WX - Weather  TMP - Temperature  DP - Dew Point  RH - Humidity
WIND - Wind Direction/Speed PRES - Barometric Pressure VSB - Visibility
WCI - Wind Chill Index E13G22 Wind - East Wind 13 mph/Gusts of 22 mph

Trending Headlines

Elberton Radar Loop



Elberton Quick Facts


National Two Day Weather Forecast


E-mail the Elberton Weather Forecast

Voice your opinion or tell us about page issues...